Location: Caltech
(34.1382°N, 118.1253°W)
Time: 11:44:42
(UTC-08:00)

Iridium 49 - Visible Passes

Search period start: 03 December 2016 00:00
Search period end: 13 December 2016 00:00
Orbit: 776 x 779 km, 86.4° (Epoch: 03 December)

Date Brightness Start Highest point End Pass type
(mag) Time Alt. Az. Time Alt. Az. Time Alt. Az.
03 Dec 8.9 03:57:05 10° NE 03:59:36 13° ENE 04:02:06 10° ESE visible
03 Dec 6.1 05:35:33 10° NNW 05:40:39 55° W 05:45:43 10° SSW visible
03 Dec 8.3 18:29:23 10° SW 18:33:31 24° W 18:37:41 10° NNW visible
04 Dec 6.2 05:01:56 10° N 05:07:10 76° E 05:12:22 10° S visible
04 Dec 7.2 17:54:52 10° SSW 17:59:51 45° W 18:04:51 10° NNW visible
05 Dec 7.4 04:28:44 10° NNE 04:33:35 38° E 04:38:25 10° SSE visible
05 Dec 7.3 06:10:19 10° NW 06:13:56 19° W 06:17:33 10° SW visible
05 Dec 6.1 17:21:05 10° S 17:26:17 89° W 17:31:32 10° N visible
06 Dec 8.4 03:56:04 10° NNE 03:59:53 20° E 04:03:40 10° SE visible
06 Dec 6.5 05:35:54 10° NNW 05:40:39 37° W 05:45:24 10° SSW visible
06 Dec 8.8 18:30:38 10° WSW 18:33:47 16° WNW 18:36:57 10° NW visible
07 Dec 5.9 05:02:03 10° N 05:07:15 73° W 05:12:26 10° S visible
07 Dec 8.0 17:55:28 10° SW 18:00:01 30° W 18:04:37 10° NNW visible
08 Dec 6.5 04:29:00 12° N 04:33:45 58° E 04:38:51 10° SSE visible
08 Dec 7.7 06:11:37 10° NW 06:13:50 13° W 06:16:04 10° WSW visible
08 Dec 6.7 17:21:16 10° SSW 17:26:23 60° W 17:31:33 10° N visible
09 Dec 7.8 03:57:09 18° NE 04:00:07 30° E 04:04:38 10° SE visible
09 Dec 7.0 05:37:43 16° NW 05:40:38 25° W 05:44:48 10° SW visible
09 Dec 9.2 18:33:19 10° W 18:34:05 10° WNW 18:34:51 10° WNW visible
10 Dec 8.6 03:25:09 15° ENE 03:26:21 16° ENE 03:29:24 10° ESE visible
10 Dec 6.2 05:05:43 36° NW 05:07:18 48° W 05:12:17 10° SSW visible
10 Dec 8.6 17:56:24 10° SW 18:00:15 21° W 18:04:08 10° NNW visible
11 Dec 5.9 04:33:38 82° NNE 04:33:51 87° E 04:39:04 10° S visible
11 Dec 7.5 17:21:42 10° SSW 17:26:33 39° W 17:31:26 10° NNW visible
12 Dec 7.2 04:01:27 38° ESE 04:01:27 38° ESE 04:05:15 10° SSE visible
12 Dec 7.6 05:42:00 15° W 05:42:00 15° W 05:43:48 10° WSW visible
